This is the latest recevied weather packets stored in our database for station/object YF9UAG-17. If no packets are shown the sender has not sent any weather packets the latest 10 day(s).
| Time | Temp. | Humidity | Pressure | Rain* | Wind** | Luminosity | Snow |
|---|---|---|---|---|---|---|---|
| 1787474294 | 32.22° C | 47% | 1031.1 hPa | - | - | - | - |
| 1787473691 | 31.67° C | 47% | 1030.8 hPa | - | - | - | - |
| 1787473088 | 31.11° C | 45% | 1030.7 hPa | - | - | - | - |
| 1787472484 | 30.56° C | 47% | 1030.4 hPa | - | - | - | - |
| 1787471881 | 31.67° C | 47% | 1030.3 hPa | - | - | - | - |
| 1787471275 | 32.22° C | 44% | 1030.3 hPa | - | - | - | - |
| 1787470672 | 31.11° C | 44% | 1030.2 hPa | - | - | - | - |
| 1787470069 | 30.56° C | 44% | 1030.2 hPa | - | - | - | - |
| 1787469465 | 32.78° C | 44% | 1030.3 hPa | - | - | - | - |
| 1787468862 | 31.11° C | 42% | 1030.5 hPa | - | - | - | - |
| 1787468259 | 31.11° C | 43% | 1030.5 hPa | - | - | - | - |
| 1787467656 | 31.11° C | 44% | 1030.6 hPa | - | - | - | - |
| 1787467053 | 30.56° C | 43% | 1030.8 hPa | - | - | - | - |
| 1787466448 | 31.11° C | 41% | 1030.9 hPa | - | - | - | - |
| 1787465845 | 31.11° C | 44% | 1030.9 hPa | - | - | - | - |
| 1787465242 | 30° C | 44% | 1031.1 hPa | - | - | - | - |
| 1787464638 | 31.11° C | 47% | 1031.3 hPa | - | - | - | - |
| 1787464035 | 31.67° C | 49% | 1031.5 hPa | - | - | - | - |
| 1787463432 | 33.89° C | 47% | 1031.6 hPa | - | - | - | - |
| 1787462829 | 30.56° C | 50% | 1031.8 hPa | - | - | - | - |
| 1787462225 | 30.56° C | 51% | 1032 hPa | - | - | - | - |
| 1787461622 | 30.56° C | 51% | 1032.2 hPa | - | - | - | - |
| 1787461019 | 30.56° C | 52% | 1032.4 hPa | - | - | - | - |
| 1787460416 | 30° C | 53% | 1032.6 hPa | - | - | - | - |
| 1787459813 | 30° C | 55% | 1032.8 hPa | - | - | - | - |
* Rain since midnight (hover to see other rain measurements)
** Current wind speed in m/s (hover to see current wind gust speed)